Voltar ao catálogo

ONEWEB-0286

AtivoComunicaçõesPO
NORAD 49076·PAYLOAD·🇬🇧 United Kingdom

Lançado Aug 21, 2021 de Baikonur Cosmodrome

Loading…

Próximas Passagens (próximas 24 horas)

TLE

AtualizadoSource: CelesTrak SupGP

Época: Sep 14, 2026, 18:52 UTC

1 49076C 21075B   26257.78630048 -.00002079  00000+0 -57874-2 0  2578
2 49076  87.8973 332.8855 0002001 107.0958 313.5611 13.12442245    16

Acompanhe ONEWEB-0286 em tempo real com AllMySat

Download on the App Store